Theta_e
307 307 307 307 307 310 317 319 320 317 314 313 313 313 313 314 315 325 326 327 326 324 321 318 317 319 324 325 325 325 332 338 341 341 340 339 334 341 342 343 344 343 339 337 340
306 306 307 307 307 307 308 309 315 319 319 316 314 313 313 314 317 323 325 324 323 321 320 317 318 321 325 325 324 322 324 332 336 338 338 335 336 343 343 343 341 340 337 338 337
305 305 306 306 306 307 308 308 308 311 318 320 317 314 314 314 323 327 324 323 322 318 318 321 324 324 323 323 323 321 321 325 327 328 338 337 333 337 343 342 339 336 337 337 336
306 306 306 306 306 307 307 308 308 309 310 318 320 316 314 314 326 325 323 321 321 316 319 324 323 323 319 320 322 320 321 322 323 325 335 334 335 342 341 342 336 332 336 336 335
307 307 308 308 307 306 307 307 308 308 309 312 320 320 315 314 317 323 322 320 322 318 324 323 322 320 319 319 320 319 320 321 322 323 323 330 338 340 341 341 335 335 335 335 335
308 307 307 308 308 308 307 307 308 308 309 309 315 321 317 313 317 321 320 320 322 321 322 324 327 325 322 319 318 319 319 319 322 323 323 335 341 343 341 340 337 336 336 335 334
308 308 307 308 308 308 307 307 308 308 309 308 310 321 321 316 319 322 320 320 322 323 324 328 326 324 323 320 320 321 319 317 321 322 325 342 342 341 342 340 339 338 337 336 335
308 308 308 308 308 308 313 312 311 309 308 308 309 320 321 318 317 321 321 320 323 326 327 326 324 323 322 321 319 319 316 319 319 321 324 332 341 337 341 340 339 339 337 337 336
308 308 307 308 308 318 318 317 318 309 308 307 313 318 320 321 320 318 321 320 322 325 324 322 323 321 320 316 315 313 317 319 319 320 322 325 332 334 341 339 339 339 338 337 338
307 307 308 309 315 317 320 320 319 317 314 313 316 318 319 322 323 320 318 320 320 320 320 320 322 316 312 315 317 316 318 318 318 319 319 321 325 335 342 340 340 339 339 340 340
307 306 307 314 318 317 317 318 316 315 317 315 316 316 318 321 323 322 319 320 320 319 316 319 317 317 317 316 317 318 318 318 317 318 320 318 319 334 341 341 341 340 340 340 340
307 307 308 319 319 317 316 317 316 316 315 315 315 315 317 317 320 322 320 320 318 316 316 315 316 317 317 317 317 317 318 317 318 318 319 318 320 329 338 339 340 340 340 341 340
307 307 311 319 319 319 317 317 318 319 314 316 317 316 315 318 320 322 321 319 317 316 315 314 317 318 318 318 318 317 317 318 318 319 318 320 321 326 332 338 339 339 340 340 341
309 308 311 320 319 315 317 317 318 318 315 320 317 317 318 322 322 322 322 321 318 316 315 316 317 318 318 318 317 316 316 318 318 320 318 323 323 323 331 334 338 338 338 339 339
313 308 314 317 315 315 317 318 318 318 319 320 317 318 319 320 319 320 321 322 319 318 316 317 319 318 318 319 317 318 319 318 318 318 319 320 320 320 337 335 337 339 339 338 337
315 311 311 312 313 318 320 320 320 314 319 316 317 317 317 319 319 320 320 321 320 318 317 316 318 318 317 319 319 319 319 318 317 315 317 319 319 318 334 339 339 347 346 343 340
311 313 315 313 313 312 318 321 314 315 317 318 316 316 316 316 317 316 317 318 318 319 317 317 318 318 319 318 317 318 316 317 319 319 319 318 319 318 324 337 345 347 347 347 347
317 316 318 318 316 314 317 313 317 319 318 317 316 315 317 315 315 316 316 317 317 317 315 316 318 317 318 317 317 316 314 316 319 321 320 320 320 325 341 346 346 345 345 346 348
316 317 318 319 317 315 318 316 318 318 318 317 316 316 315 316 315 315 314 318 319 319 321 319 317 319 318 318 317 317 315 315 316 319 321 318 346 347 346 346 345 345 345 345 347
308 316 321 319 318 317 313 317 317 317 317 316 316 315 315 315 315 314 315 316 317 317 317 321 324 321 319 318 317 318 316 318 313 319 320 318 327 350 349 349 346 341 341 344 346
310 318 320 318 317 318 313 316 317 317 316 316 316 316 315 314 314 315 315 315 315 315 315 322 320 322 320 318 318 316 316 315 314 315 319 319 331 341 347 346 345 342 342 342 344
313 317 319 318 315 311 313 314 317 317 316 315 314 315 315 314 314 314 315 316 315 318 317 321 321 324 324 323 322 315 316 315 317 317 317 319 319 336 342 343 343 342 341 340 340
314 319 319 317 312 310 313 316 316 316 316 316 315 314 314 314 313 314 315 315 315 316 323 321 320 324 320 321 317 318 316 316 314 313 320 319 319 337 337 340 342 342 340 335 336
316 314 317 317 315 313 314 315 316 316 316 315 315 314 314 315 311 312 315 316 316 315 317 321 319 323 323 322 321 323 323 321 317 317 320 321 335 340 336 338 341 341 341 342 340
315 313 313 311 312 313 313 314 315 316 315 315 314 315 315 316 315 315 316 316 316 316 318 318 319 319 321 322 322 321 322 323 324 321 320 321 330 340 338 335 336 334 334 342 341
314 314 314 313 313 313 312 314 315 314 314 314 314 315 314 314 315 316 316 315 317 316 319 317 319 319 321 321 322 323 322 323 324 321 320 326 333 333 338 334 333 332 332 338 341
314 314 315 312 312 312 312 313 314 313 314 314 314 313 314 314 315 317 317 317 317 316 317 317 319 319 321 321 322 323 324 325 323 321 324 332 332 334 333 332 332 334 339 338 341
Wind_Speed
14 12 11 14 17 18 19 18 17 16 16 16 14 13 14 14 7 1 2 3 2 1 2 5 8 9 4 4 2 1 4 2 4 4 3 5 2 8 4 17 2 7 14 24 32
14 13 12 12 14 16 17 17 17 16 16 15 13 12 13 14 3 3 3 1 1 1 4 8 10 9 3 2 1 4 3 7 5 2 4 4 3 11 5 9 4 11 18 36 32
17 15 14 12 12 14 16 16 15 15 15 14 12 11 11 10 3 3 3 3 2 2 6 11 8 5 3 0 3 3 4 2 9 17 16 6 6 9 16 5 14 31 37 37 33
18 18 17 16 14 13 15 15 14 14 14 13 11 10 10 4 4 5 3 4 2 3 11 7 4 4 3 2 3 4 3 8 12 17 1 5 9 8 9 5 18 29 39 39 36
19 19 18 16 15 14 14 12 12 13 12 11 10 9 6 2 2 5 2 3 1 7 10 7 5 2 1 3 2 3 4 11 22 21 11 10 13 11 7 11 21 34 39 38 36
19 19 18 18 16 16 14 12 11 12 12 11 9 7 7 2 5 5 2 2 3 7 5 5 6 6 3 2 3 3 11 14 13 19 3 8 3 10 9 22 27 35 39 39 38
19 19 19 17 17 17 15 12 11 11 10 10 8 7 9 8 7 8 6 5 6 4 3 4 8 5 5 4 2 5 6 9 5 5 6 15 2 5 25 28 32 34 37 38 38
22 19 17 17 15 13 13 13 11 8 8 7 6 6 8 4 14 12 10 7 8 5 3 2 7 6 2 4 6 4 5 4 4 6 3 3 8 5 27 33 30 32 34 37 37
22 20 17 15 13 12 12 8 9 5 2 2 1 5 6 4 10 13 14 8 7 5 3 7 6 1 1 5 5 7 3 3 10 3 1 3 3 6 28 27 26 30 34 38 36
21 19 15 12 9 12 7 6 8 9 8 1 3 4 2 1 2 1 15 11 7 5 6 4 1 3 3 4 5 5 3 4 6 3 5 3 7 6 30 28 28 29 31 36 37
22 18 12 6 9 14 5 1 6 1 14 5 3 7 7 8 1 3 12 14 9 3 2 3 2 8 6 4 2 0 2 6 6 7 6 7 7 9 25 24 19 25 29 34 39
21 18 11 5 6 8 13 14 16 13 11 8 10 19 18 18 7 2 10 12 6 4 4 4 7 4 4 2 3 3 4 7 9 5 3 8 13 8 17 28 35 33 31 39 39
21 17 10 4 7 5 6 11 8 8 4 8 4 6 6 2 3 5 4 8 3 3 3 6 6 5 4 4 4 4 6 3 8 8 6 5 8 3 8 16 26 26 38 37 41
20 17 12 0 0 7 1 4 4 7 4 5 5 4 4 4 3 8 12 2 0 7 7 5 7 7 4 6 6 7 6 7 7 3 5 4 8 5 8 19 16 25 30 35 35
19 15 12 12 7 10 11 5 5 4 5 5 4 4 1 2 8 4 9 10 4 4 6 8 3 3 5 10 6 10 7 8 7 5 2 4 2 9 2 8 14 8 21 25 23
15 13 14 14 12 13 14 6 3 4 3 6 5 7 5 1 4 11 2 5 3 1 1 8 6 4 6 5 5 7 5 6 2 4 4 6 6 6 5 7 5 9 13 18 19
12 9 14 17 17 16 18 1 5 6 5 7 5 6 2 6 7 8 5 3 3 2 6 5 8 4 7 6 3 4 5 3 4 2 6 3 3 7 9 3 10 14 21 23 23
13 6 12 18 20 19 15 4 8 2 4 4 5 7 6 10 7 9 6 6 7 3 1 3 8 6 2 8 9 8 9 5 5 3 4 5 6 4 8 21 30 25 26 28 28
11 7 8 18 23 19 7 6 2 3 6 5 4 6 6 6 5 7 7 3 5 11 5 5 5 9 9 5 7 3 4 8 7 1 1 4 4 7 9 14 21 23 27 30 30
11 6 10 16 20 13 6 4 4 7 7 4 3 3 5 6 6 7 4 2 2 15 18 3 7 6 6 7 4 6 6 2 2 4 6 6 4 8 12 12 13 17 22 28 26
9 3 8 14 11 7 4 1 3 11 11 5 4 3 5 4 3 2 5 5 11 9 12 4 3 6 5 5 6 4 3 1 3 5 7 4 6 5 16 19 19 17 25 33 32
5 3 10 14 6 4 2 4 7 8 13 6 4 3 2 3 3 2 6 3 25 18 7 2 3 5 12 15 14 10 13 8 5 6 3 4 6 5 7 12 22 23 21 23 24
5 5 8 11 3 3 5 4 4 6 4 4 3 4 2 1 4 4 3 8 18 8 5 6 3 5 10 9 3 4 6 6 3 4 7 6 6 2 6 10 22 32 34 24 20
5 3 5 8 7 4 4 3 5 9 2 5 2 3 4 2 5 4 8 7 18 19 17 3 5 9 13 10 12 10 19 14 9 5 6 7 7 7 9 13 18 19 25 30 32
5 3 3 3 3 3 1 2 2 4 6 8 5 5 5 4 6 8 5 11 11 20 11 8 7 9 20 22 18 25 20 25 17 20 9 13 11 21 22 20 24 19 25 30 30
3 3 3 4 5 3 2 1 3 3 2 4 3 6 5 6 9 17 13 4 9 7 4 2 8 13 17 21 18 23 23 27 22 20 9 6 7 13 22 22 26 25 29 26 29
1 1 1 2 2 2 0 3 4 9 7 4 8 11 13 18 21 22 25 29 25 17 16 7 9 4 18 21 12 17 26 26 24 8 10 11 8 18 15 21 29 31 33 35 38
Wind_Direction
340 332 320 302 301 299 297 299 300 299 303 308 321 329 330 333 339 216 45 124 142 75 165 167 168 166 177 261 256 39 57 312 255 187 225 274 108 147 188 151 179 199 173 164 158
345 340 337 323 309 301 294 295 291 292 297 302 316 329 332 338 4 179 86 107 143 115 161 163 155 158 162 250 236 99 121 223 215 305 189 213 90 157 142 182 69 120 142 154 162
344 340 337 329 320 308 303 300 294 289 288 296 310 323 332 343 82 120 93 37 60 134 151 156 148 142 123 338 292 167 206 236 290 294 251 283 255 191 142 236 176 151 156 164 169
341 337 335 330 324 314 307 309 303 291 281 287 300 316 329 339 143 136 54 20 36 156 153 138 137 129 102 155 277 334 289 289 301 313 188 228 207 157 173 250 182 166 166 169 178
344 340 337 330 322 315 306 305 306 296 288 277 286 306 325 289 211 180 294 334 68 145 149 135 135 108 141 179 301 246 304 320 311 307 297 228 203 161 211 162 166 164 170 178 185
342 339 336 332 328 320 313 312 303 297 291 272 265 285 305 285 180 171 165 252 184 161 162 96 26 340 274 248 161 267 292 299 309 305 319 169 172 145 179 164 165 171 178 186 193
340 339 335 332 332 329 329 324 304 294 290 272 256 267 271 229 192 189 162 142 171 174 183 56 9 3 323 301 303 287 328 334 308 315 358 119 38 241 168 169 172 182 187 190 198
340 340 339 335 337 343 340 326 319 296 280 272 247 262 255 215 219 204 195 175 172 182 236 356 348 317 225 312 355 15 52 355 267 324 173 131 241 239 177 172 183 191 196 198 202
345 342 340 341 351 0 346 21 21 3 309 255 247 254 266 234 247 232 214 190 173 210 275 299 310 271 310 77 5 357 222 222 311 202 291 116 248 257 186 186 188 195 199 203 207
351 351 345 345 29 16 21 42 47 49 33 2 244 287 294 351 289 143 221 215 215 240 266 275 318 61 40 90 218 250 248 262 251 308 13 342 230 235 191 194 197 200 203 208 211
354 357 358 6 36 37 50 89 12 325 326 261 257 283 310 0 196 198 196 203 232 190 127 1 79 226 232 196 170 244 255 272 277 284 325 277 267 210 200 202 206 209 209 212 214
357 1 11 64 45 47 57 63 26 337 306 311 274 262 264 282 315 41 175 178 183 171 134 11 250 238 227 213 237 251 286 288 285 272 167 300 278 226 194 205 204 202 208 214 216
2 5 27 100 72 97 61 36 16 344 280 312 324 287 282 246 242 286 191 192 142 169 160 170 234 63 189 273 270 256 231 236 246 324 247 252 294 240 199 221 216 216 212 213 215
3 9 28 204 47 6 345 286 267 306 47 331 10 19 351 117 281 262 239 215 148 200 161 225 267 232 238 250 171 272 214 243 273 9 268 90 294 275 224 204 208 211 210 214 218
2 16 21 20 10 5 343 312 238 294 69 335 43 28 133 206 325 32 235 197 205 177 108 243 290 266 228 236 162 244 261 229 250 230 281 232 134 273 80 232 207 170 209 210 211
3 20 20 18 10 0 346 310 262 43 67 355 13 351 3 293 300 334 341 202 230 163 127 235 254 206 216 263 165 277 310 286 80 139 236 244 174 280 201 203 160 106 124 163 164
357 26 36 32 10 352 346 335 42 71 327 357 325 346 33 340 20 0 345 18 198 155 256 280 252 229 215 293 344 195 76 308 313 179 225 147 132 230 318 156 119 103 93 104 120
1 21 33 22 8 354 355 62 68 350 358 358 326 347 56 24 2 355 12 13 5 1 35 245 311 182 190 178 211 193 164 171 214 228 268 128 229 309 338 105 107 97 103 106 116
358 353 13 9 2 357 2 53 127 8 313 336 349 38 2 6 26 11 359 352 45 30 23 337 281 331 316 242 146 280 176 197 227 305 290 227 87 51 81 91 105 112 110 114 122
351 359 13 6 356 357 66 120 102 21 332 18 63 55 12 349 28 22 320 335 34 41 357 325 302 262 290 281 223 195 194 275 355 199 236 278 217 175 152 140 131 129 127 130 134
359 42 13 358 6 33 93 53 45 22 29 39 17 13 42 20 332 250 272 324 26 348 345 341 200 296 320 241 225 293 234 202 175 163 209 229 260 180 168 164 153 151 155 149 146
20 36 358 4 49 37 52 335 352 6 21 19 107 72 79 4 289 264 235 327 5 1 332 266 256 255 256 285 278 257 245 189 177 261 238 182 254 330 166 164 151 154 157 152 152
14 346 14 13 79 19 334 342 35 19 346 6 25 58 102 317 318 258 308 336 327 2 348 338 285 319 309 308 48 227 219 178 161 112 218 173 244 112 126 172 184 161 167 159 179
5 19 21 58 66 90 24 321 348 335 53 26 308 58 19 286 234 278 290 299 308 283 260 215 225 221 253 261 303 293 294 293 214 177 220 226 160 196 191 203 194 180 164 156 163
23 48 33 331 8 357 329 306 319 358 13 31 354 66 21 287 292 255 275 307 290 279 268 186 224 230 259 262 264 271 272 278 269 246 188 234 196 186 191 193 189 185 170 166 165
35 22 1 324 330 25 355 2 5 8 1 297 203 346 320 249 251 282 284 284 269 278 221 204 263 266 256 264 250 257 255 265 262 261 240 189 216 199 182 168 198 204 190 176 167
110 89 317 320 351 60 204 352 325 334 301 225 343 317 289 271 274 279 278 275 258 253 254 230 248 267 270 260 275 264 237 246 245 208 196 199 206 152 169 185 203 195 192 178 172